Dewpoint
62 59 57 57 57 54 47 44 29 34 31 28 29 28 25 28 31 20 20 19 23 21 27 35 35 32 29 31 31 34 35 30 33 31 31 38 53 56 58 59 61 62 62 62 63 64 65 67 69 69 68 68 69 70 70 70 70 69 69 69 69 69 69 69 69 70 70 69 69 69 69 69 69 69 69 69 69 68 68 68 68 70 70 70 70 70 70 70 70 70 69 69 68 67 67 68 67
60 57 58 57 53 46 43 40 33 31 29 25 26 29 29 31 23 22 19 19 22 26 31 35 34 37 39 38 36 36 36 39 36 39 45 50 53 54 57 60 61 61 61 61 62 63 63 65 68 68 67 68 69 69 69 69 69 69 69 69 69 69 69 69 69 69 69 68 68 68 68 68 68 68 68 68 67 67 67 67 67 68 69 69 69 69 69 69 68 67 66 66 65 64 64 64 64
60 56 55 53 49 48 45 38 28 26 21 16 21 27 30 22 22 24 21 18 19 23 31 33 31 32 34 31 32 31 32 44 46 47 47 50 55 57 58 60 60 61 61 60 61 62 62 64 67 67 67 67 67 66 67 67 67 67 67 68 67 68 68 68 68 68 67 67 67 67 66 66 66 67 67 67 66 65 66 66 66 67 67 68 67 67 66 66 66 65 64 64 63 62 62 62 62
54 57 52 51 46 43 38 36 31 27 24 23 26 29 29 23 22 25 25 22 27 29 29 30 29 29 31 29 29 31 31 39 45 47 48 52 55 56 59 60 60 60 60 60 60 61 61 65 67 67 66 67 67 67 67 66 65 66 66 66 66 66 66 66 66 66 66 66 66 65 65 65 65 65 66 65 64 64 64 65 64 65 65 65 65 65 65 64 64 63 63 62 61 61 60 61 61
53 56 54 50 43 35 32 34 32 29 23 29 22 26 29 29 22 27 31 31 31 31 29 27 28 30 30 29 31 30 28 40 42 48 47 50 51 57 59 59 60 60 59 59 60 60 60 65 66 67 66 66 66 66 66 66 66 64 64 64 66 64 64 64 64 63 63 63 63 63 64 64 65 65 63 62 62 62 62 63 63 63 63 63 63 63 63 63 62 61 61 60 60 60 59 60 60
52 50 50 48 39 42 36 28 29 29 27 30 26 26 31 29 27 28 30 29 29 29 28 28 23 25 25 30 33 29 36 34 40 47 48 50 52 57 58 59 59 59 59 59 59 59 60 65 66 66 65 66 66 66 65 65 64 64 63 63 63 62 62 63 63 63 61 62 61 62 62 62 62 62 62 61 61 61 62 62 62 62 62 62 62 61 61 60 59 59 58 58 58 58 58 58 57
47 42 43 39 39 40 34 31 30 31 30 30 30 29 27 27 27 31 28 27 28 26 28 25 28 22 18 28 31 37 43 44 45 46 49 49 54 56 59 59 58 58 58 58 58 58 58 64 65 64 64 64 65 65 64 64 64 63 63 62 62 62 62 62 61 62 62 62 63 63 63 63 63 62 62 61 61 61 61 60 60 60 60 60 60 60 59 58 57 57 57 56 57 58 57 56 56
51 42 42 31 32 29 27 30 30 32 25 32 33 30 27 26 30 28 27 26 25 25 25 28 29 18 15 31 26 32 41 47 46 47 48 52 54 56 58 58 58 57 57 57 57 57 61 64 65 65 64 64 64 64 63 63 63 63 62 62 62 62 62 62 63 63 63 63 63 63 63 63 62 61 61 60 60 59 58 58 58 58 58 58 58 58 58 57 57 56 56 57 57 57 56 56 55
44 45 42 31 26 30 28 28 28 31 30 30 27 31 38 31 30 27 27 26 26 25 25 27 29 17 16 29 29 34 39 44 47 48 49 52 54 56 58 58 57 57 57 57 57 57 58 64 65 64 64 63 63 63 63 63 63 63 63 63 63 63 63 63 63 63 63 63 63 63 62 61 60 60 60 59 58 58 57 57 57 57 57 57 57 57 57 57 57 57 57 57 57 56 55 55 54
41 37 32 30 29 22 27 23 24 26 30 32 30 28 27 30 29 27 27 26 25 24 24 28 25 16 21 25 29 30 39 44 48 48 49 52 54 56 57 57 57 56 56 56 56 57 58 62 64 63 64 63 62 63 62 62 62 63 63 63 63 63 63 63 62 63 62 62 62 61 60 60 59 59 58 57 57 57 57 56 56 56 56 56 56 56 57 57 58 58 58 57 56 55 55 54 54
35 40 39 30 28 25 25 22 27 28 30 32 30 30 29 29 29 27 27 25 27 23 24 27 26 24 26 25 31 37 43 45 47 47 50 52 53 54 56 55 56 56 56 55 56 57 58 59 61 63 63 63 63 63 62 62 62 62 63 63 62 62 62 62 62 61 61 61 61 61 60 60 58 58 57 57 56 56 56 57 56 56 56 57 57 57 57 57 56 57 57 56 55 54 54 54 53
33 36 35 28 26 24 24 26 29 29 30 30 26 25 25 29 27 24 24 24 24 25 23 28 23 26 24 26 29 34 41 44 47 48 50 52 52 51 54 54 54 54 55 54 54 55 56 56 58 61 62 62 63 63 63 62 62 62 62 62 62 62 62 62 61 60 60 61 60 60 60 59 59 58 56 56 55 55 55 56 56 56 56 56 56 57 56 55 55 55 54 53 54 54 53 53 52
36 37 32 29 28 26 30 28 29 34 29 24 25 21 27 26 26 25 24 24 25 26 23 26 28 24 23 26 30 38 41 43 46 48 50 51 49 50 52 53 53 53 53 54 54 54 54 55 56 58 60 61 62 62 62 62 62 62 61 62 62 62 61 60 60 60 60 60 60 59 58 58 57 56 55 55 55 55 55 55 55 56 56 56 56 56 55 54 54 53 52 52 52 52 52 52 52
34 35 32 28 29 29 28 28 27 23 20 24 26 24 27 24 24 24 22 22 23 23 24 26 27 25 23 25 27 34 39 43 44 48 48 45 45 50 51 51 51 51 52 53 54 54 54 54 56 56 57 58 58 60 60 61 62 61 61 61 61 60 60 60 60 59 59 59 58 57 56 55 55 55 55 55 55 55 55 55 55 56 56 56 55 55 54 53 52 52 51 51 51 51 51 51 50
34 39 33 29 27 21 26 22 22 22 21 24 26 22 22 26 24 24 21 21 20 25 28 28 30 23 20 22 23 29 35 43 44 46 43 43 45 48 49 50 50 50 50 51 53 53 53 53 54 54 54 54 55 56 57 59 60 61 61 61 60 60 59 59 59 58 58 57 56 54 54 55 56 56 55 55 55 55 54 54 54 54 55 54 54 53 53 52 51 50 50 49 49 49 50 49 48
38 35 31 28 27 22 24 23 27 23 23 26 26 23 22 21 24 23 22 21 25 31 26 25 28 23 25 23 27 30 34 43 44 42 41 42 43 45 47 48 49 49 49 51 51 52 52 52 52 52 53 53 53 53 54 55 58 59 59 59 59 59 59 59 59 58 57 56 55 55 54 52 53 53 54 52 53 53 54 54 53 53 53 53 53 52 51 51 51 50 49 47 46 46 47 47 46
40 34 25 26 21 23 24 23 24 22 26 27 28 22 20 20 21 24 23 25 22 22 29 27 27 29 25 25 32 40 42 44 43 40 40 40 42 42 43 44 46 46 49 49 50 51 51 52 51 51 51 51 51 52 53 54 56 57 58 58 58 59 59 59 58 57 55 54 53 51 48 44 46 47 47 48 51 48 52 52 52 53 52 52 52 51 50 50 49 49 48 46 45 45 43 43 44
35 28 25 20 25 24 28 23 24 24 22 21 21 22 20 20 21 21 22 21 22 22 26 27 27 27 34 35 40 41 42 42 40 41 40 40 40 40 43 44 45 48 48 49 49 50 50 50 51 50 50 49 50 51 51 52 54 56 53 54 54 56 56 55 52 49 51 47 50 44 40 41 40 41 44 48 47 48 49 51 51 51 51 51 51 51 49 48 48 47 47 45 44 43 41 33 36
34 30 22 20 26 25 31 28 28 20 22 20 20 22 20 20 21 21 19 19 20 20 21 23 24 26 33 38 40 41 41 41 40 42 40 39 39 40 42 43 44 45 46 47 48 48 49 50 50 50 50 49 48 49 50 50 51 50 50 50 51 53 52 50 47 46 42 42 41 39 40 39 39 41 42 43 45 48 47 49 48 49 50 49 49 49 48 47 46 45 44 43 43 40 33 33 33
36 30 27 27 27 26 29 29 25 22 22 22 20 20 20 20 21 22 20 19 19 18 18 20 22 22 24 36 39 40 40 40 40 41 40 40 39 40 41 42 43 44 46 46 47 47 48 49 49 49 49 47 48 48 48 49 48 48 48 48 48 48 47 46 44 41 40 39 38 38 37 38 39 40 49 49 48 45 47 49 47 45 44 44 44 43 46 45 46 44 42 41 40 38 32 33 33
34 30 28 29 29 27 26 28 28 27 25 21 19 20 19 19 20 20 19 18 18 18 19 18 18 20 22 34 38 39 39 39 39 40 39 39 39 39 39 41 42 43 44 44 43 44 46 47 48 48 48 47 47 47 47 48 47 46 46 45 45 44 43 41 41 40 40 38 37 36 36 39 39 42 39 37 35 33 32 31 31 31 33 35 37 31 32 36 34 33 34 36 33 34 33 33 33
34 31 31 30 28 26 25 24 26 24 22 20 20 19 20 20 21 20 19 18 18 18 18 19 19 19 20 34 37 39 38 39 38 39 39 38 38 37 37 38 38 37 37 39 41 42 44 45 47 47 46 45 46 46 47 47 45 45 43 43 42 41 40 39 39 39 39 39 37 36 39 37 38 35 33 33 32 30 30 30 30 31 31 33 35 30 31 32 32 32 33 33 32 32 32 32 34
28 29 30 31 29 27 27 25 24 23 22 21 21 21 20 19 19 20 20 18 19 20 20 20 20 20 20 30 37 38 38 38 38 38 38 38 38 37 36 36 36 36 36 37 38 39 40 43 44 45 45 44 44 44 45 45 44 43 42 41 40 39 38 38 38 38 37 38 37 38 36 36 35 33 32 32 31 30 29 30 30 30 29 30 32 30 31 32 32 32 32 31 31 31 32 32 32
30 27 28 27 29 28 28 27 27 25 23 24 22 21 19 19 18 20 19 19 19 20 20 20 20 21 30 32 36 37 37 37 37 37 38 38 38 37 37 35 35 35 35 35 35 36 38 40 41 43 43 43 43 42 43 43 42 40 39 42 39 39 38 37 37 37 37 37 37 38 36 34 32 31 32 31 31 30 29 29 30 30 29 30 32 30 30 31 32 32 31 31 30 31 31 31 30
31 30 30 29 29 28 28 27 25 23 22 22 22 20 19 19 19 20 19 20 20 20 20 20 20 21 28 28 34 36 37 37 37 37 38 37 38 38 38 37 36 35 34 34 34 34 35 37 38 40 41 41 41 40 41 41 40 38 38 39 37 40 37 37 37 37 36 36 37 37 35 33 32 31 31 30 31 29 30 30 29 29 30 31 32 31 30 30 31 31 30 29 29 29 30 30 30
29 27 29 27 24 24 23 21 20 20 20 20 20 19 20 20 22 19 19 20 20 20 20 20 20 23 23 27 31 34 35 36 37 37 36 37 37 36 37 36 35 34 35 34 34 33 33 35 36 37 39 40 39 37 38 38 38 36 35 37 36 40 36 36 37 36 35 36 36 36 35 33 31 31 31 31 30 29 29 29 29 29 29 31 31 30 31 30 30 30 30 29 29 29 29 33 29
28 28 28 25 22 21 21 20 21 20 20 21 20 20 20 21 20 17 18 19 20 19 19 20 20 20 20 22 27 32 33 35 35 36 37 36 36 36 36 37 36 34 35 34 33 33 34 34 35 35 36 39 37 35 35 35 36 35 34 35 35 37 36 37 37 35 34 35 36 35 34 34 32 31 31 31 30 29 29 28 28 29 29 30 30 30 33 30 30 29 29 29 29 29 29 31 29
22 21 20 21 21 21 20 20 20 20 19 20 20 19 20 20 21 17 16 18 20 18 18 19 21 20 20 20 22 28 31 33 34 35 35 35 35 35 35 35 35 35 34 34 33 33 32 33 34 34 34 37 37 34 34 32 34 33 32 33 35 36 36 35 36 35 35 34 36 35 34 33 34 31 31 30 29 29 28 27 28 27 27 30 31 31 31 31 31 31 31 31 31 30 29 30 30
21 21 19 19 19 18 18 17 17 20 18 20 20 19 17 20 18 18 18 18 19 19 19 18 19 19 21 21 21 22 26 29 32 33 34 34 34 35 35 35 35 35 35 34 34 33 31 32 33 33 34 36 37 34 32 31 32 32 31 32 34 38 36 35 35 35 34 34 35 34 33 33 34 31 31 31 33 29 28 27 27 28 28 29 30 31 31 31 32 31 32 32 30 30 29 29 30
21 21 19 18 17 16 15 18 19 19 18 20 16 10 11 12 15 16 17 18 19 19 19 18 19 20 20 20 21 22 22 24 28 31 31 32 33 33 34 34 35 35 35 35 34 32 32 33 34 34 34 35 37 35 33 31 32 32 32 32 34 37 35 34 34 34 34 33 34 34 33 33 33 31 31 30 30 29 28 27 26 27 28 30 31 30 29 29 29 29 31 32 34 29 27 28 26
19 20 19 19 17 15 16 18 18 16 19 19 16 12 10 10 11 13 16 19 19 18 18 18 19 19 18 21 21 22 22 23 24 26 30 31 31 32 33 33 34 35 36 34 33 33 32 32 33 32 35 34 37 36 35 32 32 33 32 32 33 36 35 34 33 33 33 33 33 33 33 33 32 31 31 30 29 29 28 27 27 26 28 30 29 29 28 29 29 29 30 28 29 27 28 31 27
23 16 17 21 16 16 16 18 18 15 17 20 16 16 13 12 12 13 18 19 18 17 17 17 18 18 17 18 18 19 21 22 24 25 26 28 30 31 32 32 33 34 35 34 33 33 31 31 33 32 34 33 35 36 35 33 32 33 33 34 33 35 35 34 33 32 32 33 33 32 32 33 32 31 31 30 29 29 28 27 26 27 29 29 28 29 28 28 29 31 31 28 25 28 28 26 28
24 16 18 17 20 18 17 15 18 17 17 19 16 12 15 13 16 17 18 18 17 16 16 16 16 16 17 16 16 17 18 18 23 23 25 26 28 29 30 31 32 33 34 34 33 32 31 31 33 32 32 33 34 35 35 33 32 32 32 33 33 35 34 33 33 32 32 32 32 32 32 33 31 31 31 30 29 29 28 27 27 28 29 27 28 29 27 29 29 30 30 30 25 26 26 26 26
18 20 18 21 16 15 14 16 14 22 17 16 17 16 14 12 12 13 15 18 17 16 16 16 16 16 16 17 17 17 17 18 17 18 21 25 26 28 29 33 32 33 34 34 34 32 31 31 31 32 32 33 33 34 33 33 32 32 33 33 35 34 34 33 33 32 31 32 31 31 32 33 32 31 31 30 29 29 28 28 27 28 28 27 27 27 27 30 29 27 27 28 27 26 25 25 25
15 15 18 16 19 18 14 15 12 15 18 16 17 17 16 16 16 17 17 18 17 17 16 16 16 17 17 18 18 18 19 19 18 19 22 23 27 28 28 30 32 32 33 34 33 32 31 31 31 32 32 32 33 33 33 32 32 32 32 33 34 34 33 33 33 32 32 31 31 31 32 32 32 31 31 30 29 29 28 28 27 28 28 27 26 26 28 29 29 27 26 26 28 27 26 26 25
13 14 12 14 13 12 16 17 17 17 14 14 17 15 14 15 16 17 17 17 17 17 17 18 18 18 18 18 19 19 20 19 20 22 27 26 27 28 28 30 32 32 32 33 34 32 31 30 31 31 32 32 32 32 32 31 31 32 31 32 33 33 32 32 32 32 32 30 31 31 32 32 31 31 30 29 28 29 28 28 27 28 27 26 25 26 27 27 25 25 25 26 27 28 28 27 26
16 19 17 13 14 13 14 13 14 17 15 13 13 13 13 14 15 15 15 16 16 16 16 17 18 18 19 19 20 20 20 20 24 26 28 29 29 29 30 30 31 32 32 32 32 32 31 30 30 30 31 31 32 31 30 30 30 31 31 31 31 32 32 31 32 32 32 31 31 31 32 31 31 31 30 29 28 30 28 27 27 28 27 26 25 25 27 27 25 25 29 29 26 25 24 24 24
18 19 20 17 20 15 15 15 15 17 15 14 15 15 15 15 15 16 16 16 16 16 16 17 17 18 19 20 20 20 19 23 26 25 25 29 30 31 31 31 33 31 32 31 32 31 30 29 30 30 31 31 31 31 31 30 30 29 29 30 30 31 31 31 31 31 31 32 31 30 32 31 30 30 30 29 28 28 27 27 27 27 27 26 26 27 27 30 28 27 27 25 27 25 24 25 24
21 19 19 20 19 20 19 18 19 18 18 16 17 16 16 17 17 18 18 18 18 18 18 18 18 19 20 20 19 19 19 20 20 21 24 25 31 31 31 31 32 31 31 31 31 31 30 29 30 30 31 31 31 31 31 30 30 30 29 29 29 30 31 31 31 31 32 31 31 30 31 31 30 29 30 29 28 28 27 27 26 27 27 27 27 27 28 27 25 26 25 23 24 26 27 27 24
21 21 20 18 19 18 15 19 19 18 18 19 19 17 17 17 17 17 18 18 18 20 20 21 22 20 20 19 18 19 19 20 20 20 20 22 27 29 30 31 31 32 32 31 31 31 30 29 29 30 30 30 31 31 31 30 30 30 29 30 30 30 29 32 30 31 31 31 30 30 30 30 30 29 29 29 28 27 26 26 26 27 26 27 26 25 26 25 25 26 25 25 22 21 22 23 28
23 22 20 19 20 19 17 15 19 20 20 20 18 18 16 18 17 17 17 18 18 18 18 19 20 23 23 25 25 25 21 20 21 21 22 22 26 28 29 30 31 31 32 31 31 30 29 29 29 29 30 30 30 31 31 30 30 29 30 29 29 28 29 29 28 29 30 30 30 30 29 30 30 29 29 29 28 27 27 26 26 26 26 27 26 25 25 24 25 25 24 25 21 19 22 23 24
19 23 22 20 19 18 19 21 20 19 19 21 20 14 14 18 17 17 17 17 17 17 17 17 18 18 19 20 20 22 26 25 24 23 23 24 25 27 29 30 30 31 31 32 31 31 29 29 29 29 30 30 30 30 30 30 30 28 28 27 27 27 27 28 27 27 28 29 29 30 29 30 29 28 28 28 28 28 26 26 26 26 26 27 26 25 24 25 25 25 24 23 22 22 22 23 23
18 19 24 21 20 21 21 21 20 18 15 20 21 14 14 17 17 17 17 17 17 17 19 18 18 19 20 22 23 22 23 24 24 25 25 25 26 27 29 30 30 30 31 32 31 30 29 28 28 29 29 29 30 30 30 30 29 28 27 27 27 26 26 27 27 28 28 29 30 29 29 29 29 28 28 28 27 27 26 26 26 26 26 26 27 24 24 23 24 24 26 24 22 26 22 22 21
18 23 25 24 23 22 22 22 21 19 23 24 21 19 16 16 17 17 18 16 16 16 17 19 19 19 20 22 23 23 24 24 26 25 26 26 26 27 27 29 30 30 31 31 31 30 28 28 28 28 29 29 29 29 29 29 28 28 27 27 27 26 26 25 26 27 27 28 29 29 28 28 29 28 27 27 27 27 26 26 25 25 25 26 26 24 23 24 25 25 26 24 25 25 21 19 21
21 24 25 24 23 23 23 21 21 23 18 19 20 21 16 18 17 17 18 17 16 16 16 17 17 18 18 19 21 22 23 23 24 25 25 25 26 27 28 28 29 30 30 30 30 29 28 28 27 28 28 28 29 29 29 28 28 27 27 27 27 27 26 26 27 29 27 28 28 28 28 28 28 28 27 26 27 27 27 25 25 25 25 25 27 24 23 24 23 24 24 24 24 25 22 21 20
24 27 27 26 25 24 24 22 20 20 17 17 19 20 13 15 16 16 18 17 17 17 17 17 18 19 19 21 22 22 22 23 24 24 24 25 27 28 29 28 28 30 30 31 29 29 28 27 27 27 27 28 28 28 29 28 28 28 27 26 26 26 26 26 26 26 26 27 27 27 28 28 28 27 27 26 26 26 26 25 25 24 24 25 26 23 23 24 24 24 24 23 24 24 24 23 20
27 27 24 25 23 22 22 21 21 18 15 19 19 20 16 13 16 15 17 19 17 17 17 18 19 20 20 21 20 22 23 23 24 25 26 28 29 29 28 28 27 27 27 29 29 28 28 27 26 26 26 27 27 28 28 27 27 27 26 26 26 25 25 25 25 25 26 26 26 26 27 27 27 27 27 26 26 26 26 25 24 24 24 25 26 23 23 23 23 23 23 23 24 23 23 22 26
25 23 22 22 21 18 17 13 18 12 15 18 20 19 18 14 12 16 17 16 16 17 17 17 18 18 19 20 21 22 21 23 24 23 23 29 27 27 26 27 26 26 27 28 28 28 28 27 26 26 26 26 27 27 27 27 27 27 26 25 25 25 25 25 24 24 25 25 25 25 26 26 26 27 26 26 25 25 25 25 25 24 24 24 25 23 23 23 23 23 23 23 23 23 23 24 23
25 23 21 15 16 15 8 10 9 10 14 17 19 20 15 15 13 13 15 15 15 16 16 17 17 17 18 19 20 23 23 22 23 24 26 28 28 27 26 26 25 25 26 27 28 28 27 27 26 25 25 26 26 27 27 26 26 26 26 25 25 25 25 24 24 23 24 24 25 25 25 25 26 26 26 25 25 25 25 24 24 23 23 23 24 23 23 23 23 22 22 22 22 22 22 23 22
24 22 23 18 11 8 8 6 4 9 15 17 17 20 14 14 15 17 14 15 15 16 17 18 18 18 18 19 21 21 22 22 25 27 29 29 29 28 27 27 26 26 25 26 27 27 27 27 26 25 25 25 26 26 26 26 26 26 25 25 25 25 24 24 24 23 23 24 25 24 25 25 25 25 25 25 25 25 25 24 24 22 22 23 24 23 23 23 22 22 22 21 21 22 22 23 22
24 24 22 22 18 10 6 10 14 16 18 15 17 12 16 9 14 19 16 16 20 20 18 19 20 20 21 21 22 21 20 19 29 30 30 30 30 28 28 27 26 26 25 25 26 27 27 27 26 26 25 25 25 25 26 26 26 25 25 25 25 24 24 24 24 24 23 23 24 24 24 25 25 25 25 25 25 25 24 24 23 22 22 23 23 22 23 23 22 22 22 21 21 21 22 22 21
25 25 24 17 20 20 15 20 18 17 13 10 11 16 16 13 19 20 21 19 19 19 21 22 20 21 21 21 21 21 21 21 23 27 29 30 30 29 28 28 27 26 25 25 25 26 27 27 27 26 26 25 25 25 26 25 25 25 25 24 24 24 25 24 24 24 23 23 23 23 23 24 24 25 25 25 25 25 24 23 23 22 22 23 23 22 22 22 22 21 21 21 20 22 21 20 20
21 23 19 21 23 19 19 19 20 17 12 15 13 15 17 18 15 15 18 17 16 17 17 18 18 20 21 22 23 22 22 22 22 23 27 30 31 29 28 28 27 26 25 25 25 26 26 27 27 26 26 26 25 25 25 25 25 25 25 24 24 23 23 23 22 22 22 22 22 23 23 23 24 24 25 25 25 24 24 23 22 22 22 22 22 22 22 21 21 20 20 19 19 21 20 19 19
22 19 22 25 26 24 18 16 17 16 16 16 17 16 15 14 17 15 15 15 13 16 16 15 17 19 17 21 22 22 22 21 21 23 27 30 30 30 29 28 27 27 26 24 25 25 26 26 26 26 26 25 25 25 25 25 25 25 25 24 24 23 23 23 23 21 21 21 22 22 22 23 23 23 24 25 24 24 23 24 22 21 21 22 22 21 21 21 20 19 19 19 19 20 19 19 20
23 24 27 20 17 16 19 17 15 15 15 17 16 15 16 16 16 17 16 16 14 12 16 13 15 17 19 20 21 21 21 22 22 22 23 26 28 30 30 29 28 27 27 25 25 25 25 25 25 25 25 26 26 25 25 25 25 26 26 25 24 24 23 23 22 22 21 20 20 21 21 21 22 23 23 24 23 23 23 22 21 21 21 21 21 21 21 20 20 18 19 19 19 20 18 18 19
27 26 23 25 20 18 16 20 19 17 17 18 18 18 16 21 19 17 15 13 15 14 14 15 18 18 20 21 22 22 23 22 22 22 23 24 25 28 29 29 28 27 26 25 24 24 24 24 24 24 25 25 25 25 25 24 24 25 26 25 24 24 24 23 23 21 20 20 19 20 20 20 21 22 22 23 22 22 22 22 21 20 20 20 20 20 20 19 18 18 18 18 19 19 18 18 18
23 22 21 23 21 23 22 21 21 18 17 17 18 18 21 23 21 18 15 14 14 13 16 21 22 23 22 22 23 24 22 22 22 23 24 24 24 25 29 29 29 27 25 25 25 24 24 24 24 24 24 24 24 24 24 25 24 24 24 24 24 24 23 23 22 21 20 19 19 20 19 20 20 21 21 22 21 22 22 21 21 20 19 19 19 19 19 18 18 17 18 17 18 18 17 17 18
27 24 23 22 23 21 20 20 24 22 20 19 20 19 24 27 24 18 14 13 16 17 18 22 23 23 23 24 24 24 24 23 23 24 24 25 24 24 25 28 28 28 26 24 24 24 23 23 23 23 23 23 23 23 24 24 24 24 23 23 23 23 23 23 22 21 20 19 18 18 19 19 19 19 20 21 21 21 21 21 20 19 18 18 18 18 18 17 17 16 17 17 17 17 16 16 17